Regional Weather Roundup
Issued by NWS

Home | Current Version | Previous Version | Graphics & Text | Print | Product List | Glossary On
Versions: 1 2 3 4 5 6 7 8 9 10 11 12 13 14 15 16 17 18 19 20 21 22 23 24 25 26 27
000
ASUS45 KSLC 200610
RWRUT

UTAH REGIONAL WEATHER ROUNDUP
NATIONAL WEATHER SERVICE SALT LAKE CITY UT
1100 PM MST MON FEB 19 2018

UTZ001>011-023>025-200700-

NORTHERN UTAH

CITY           SKY/WX    TMP DP  RH WIND       PRES   REMARKS
BRIGHAM CITY   CLOUDY    23  11  60 N15       29.80R WCI  10
HILL AFB       FLURRIES  21  14  73 NW7       29.77R WCI  13
LOGAN          CLOUDY    23  10  57 NW13      29.79R WCI  11
OGDEN          CLOUDY    20  13  74 NW5       29.78R WCI  13
SALT LAKE CITY LGT SNOW  25  21  85 W10       29.80R FOG     WCI  15
TOOELE VALLEY  MOCLDY    16  14  93 SE5       29.81R WCI   9
WENDOVER       PTCLDY    21   7  54 CALM      29.85R
HEBER CITY       N/A      9   1  72 E3        29.70R
WEST JORDAN    CLOUDY    21  20  98 W3        29.79R

$$

UTZ011>015-024>027-200700-

CENTRAL/NORTHEAST UTAH

CITY           SKY/WX    TMP DP  RH WIND       PRES   REMARKS
PROVO AIRPORT  FLURRIES  21  16  81 VRB7      29.81R WCI  12
MOAB/CANYONLAN CLOUDY   N/A N/A N/A W10       29.67R
DELTA          CLOUDY    12  10  92 S7        29.82R WCI   2
PRICE          PTCLDY    19   6  57 NW10      29.67R WCI   7
ROOSEVELT      LGT SNOW  12   9  85 E5        29.78R WCI   4
VERNAL         CLOUDY    12   6  77 VRB7G20   29.73R WCI   1

$$

UTZ013>016-019>022-027-200700-

SOUTHERN UTAH

CITY           SKY/WX    TMP DP  RH WIND       PRES   REMARKS
BRYCE CANYON   CLOUDY    11   7  84 NW7       29.68R WCI   0
CEDAR CITY     LGT SNOW  18  17  96 N5        29.78R FOG     WCI  11
MILFORD        CLOUDY    18  15  88 CALM      29.80R
ST GEORGE      MOCLDY    35  17  47 VRB6      29.86R WCI  30
HANKSVILLE     MOCLDY    28   3  34 W9        29.75R WCI  20
BLANDING         N/A     26  11  54 SW12      29.77R WCI  15

$$

REGIONAL REPORTS     COLORADO/ARIZONA

CITY           SKY/WX    TMP DP  RH WIND       PRES   REMARKS
CRAIG, CO      LGT SNOW   3  -3  76 W7        29.71R WCI  -9
GRAND JUNCTION CLOUDY    22  21  96 NE5       29.68R WCI  16
RIFLE, CO      MIX PCPN  14  12  92 NW8       29.67R VSB 3/4 WCI   3
MONTROSE, CO   LGT SNOW  25  20  81 SW20G25   29.67R WCI  11
CORTEZ, CO     PTCLDY    21  16  81 SW9       29.73R WCI  11
COLORADO CITY    N/A     28  18  64 W6        29.81R WCI  22
PAGE, AZ       PTCLDY    33  -2  22 W5        29.76R WCI  29
GRAND CANYON   FLURRIES  15  15 100 SW7       29.78R WCI   5
KINGMAN, AZ    CLEAR     28  16  60 SE8       29.87R WCI  20
FLAGSTAFF, AZ  CLOUDY    19   9  65 W12       29.78R WCI   7

$$

REGIONAL REPORTS    NEVADA/IDAHO/WYOMING

CITY           SKY/WX    TMP DP  RH WIND       PRES   REMARKS
LAS VEGAS, NV  CLEAR     42   3  19 NW17G29   29.91R
ELY, NY        PTCLDY     5  -2  72 W6        29.80R WCI  -6
ELKO, NV       CLOUDY    16   5  62 CALM      29.86R
POCATELLO, ID  LGT SNOW  16  13  88 NW14      29.81R FOG     WCI   2
BURLEY, ID     PTCLDY    13   3  64 SW17      29.83R WCI  -4
FORT BRIDGER,  FLURRIES   0  -6  78 W7        29.66  WCI -13
EVANSTON, WY   CLOUDY     8   3  80 CALM      29.63R
ROCK SPRINGS,  CLOUDY    -3 -11  68 E8        29.68R WCI -18

$$




USA.gov is the U.S. government's official web portal to all federal, state and local government web resources and services.